Location: Torrington
(42.0650°N, 104.1810°W)
Time: 12:51:51
(UTC-06:00)

Amateur Radio Satellites - All Passes

Search period start: 01 October 2016 12:21
Search period end: 02 October 2016 12:21
Location: Torrington, 42.0650°N, 104.1810°W

Satellite Date Start Highest point End Downlink Frequencies (MHz)
Time Altitude Azimuth
Gurwin Techsat 1B 01 Oct 12:29:24 12:31:27 12° 57° (ENE) 12:33:29 435.225
PHONESAT 2.4 01 Oct 12:29:57 12:32:49 55° 189° (S) 12:35:43 2401.200-2431.200
AISAT 01 Oct 12:32:16 12:36:28 43° 99° (E) 12:40:38 437.250
M-CUBED/EXP-1 PRIME 01 Oct 12:32:33 12:34:08 13° 99° (E) 12:35:44 437.505
DUCHIFAT 1 01 Oct 12:32:44 12:36:23 30° 263° (W) 12:40:04 145.980
Oscar 19 01 Oct 12:36:07 12:40:27 28° 66° (ENE) 12:44:48 437.125/150
QB50P1 01 Oct 12:39:50 12:43:08 22° 266° (W) 12:46:27 145.935-145.965
PCSat 01 Oct 12:40:45 12:46:05 54° 56° (NE) 12:51:22 145.827
50 SAT 01 Oct 12:46:34 12:50:13 60° 101° (E) 12:53:48 437.505
DX 1 01 Oct 12:53:42 12:57:52 43° 99° (E) 13:01:59 434.975-435.025
POPSAT HIP 1 01 Oct 12:54:33 12:57:11 16° 268° (W) 12:59:49 437.405
YUBILEINY 01 Oct 12:58:04 13:05:40 32° 69° (ENE) 13:13:12 435.215
Cosmos 2491 01 Oct 13:00:22 13:04:33 14° 74° (ENE) 13:08:45 435.465 / 435.565
CUBEBUG 1 01 Oct 13:09:07 13:13:23 57° 287° (WNW) 13:17:36 437.445
NANOSAT C BR1 01 Oct 13:09:11 13:10:46 12° 270° (W) 13:12:21 145.865
VELOX 1 01 Oct 13:15:24 13:19:47 66° 286° (WNW) 13:24:07 145.980
Cosmos 2504 01 Oct 13:15:55 13:19:43 14° 61° (ENE) 13:23:37 435.465 / 435.565
JAS-2 01 Oct 13:17:15 13:22:54 29° 269° (W) 13:29:08 435.910
SO-50 01 Oct 13:22:16 13:24:48 14° 108° (ESE) 13:27:19 436.795
AUBIESAT-1 01 Oct 13:24:34 13:27:48 51° 106° (ESE) 13:31:06 437.475
SPROUT 01 Oct 13:30:40 13:34:55 78° 286° (WNW) 13:39:11 437.525
ESTCUBE 1 01 Oct 13:34:12 13:37:44 23° 294° (WNW) 13:41:14 437.505/2401.250
ITAMSAT 1 01 Oct 13:39:51 13:42:44 15° 59° (ENE) 13:45:36 435.822/435.867
UKube-1 01 Oct 13:53:09 13:57:22 53° 288° (WNW) 14:01:33 .
AO-7 01 Oct 13:53:34 13:59:45 24° 52° (NE) 14:05:55 29.400- 29.500
Gurwin Techsat 1B 01 Oct 14:05:15 14:10:33 85° 75° (ENE) 14:15:54 435.225
M-CUBED/EXP-1 PRIME 01 Oct 14:05:53 14:08:49 31° 294° (WNW) 14:11:47 437.505
PHONESAT 2.4 01 Oct 14:06:20 14:08:35 20° 204° (SSW) 14:10:51 2401.200-2431.200
AISAT 01 Oct 14:09:36 14:12:36 18° 296° (WNW) 14:15:36 437.250
Oscar 19 01 Oct 14:14:46 14:19:35 38° 262° (W) 14:24:26 437.125/150
PCSat 01 Oct 14:25:00 14:29:03 22° 254° (WSW) 14:33:06 145.827
DX 1 01 Oct 14:30:46 14:33:43 18° 296° (WNW) 14:36:40 434.975-435.025
TISAT 1 01 Oct 14:36:13 14:40:24 75° 284° (WNW) 14:44:33 437.305
Cosmos 2491 01 Oct 14:51:01 14:59:46 77° 94° (E) 15:08:37 435.465 / 435.565
YUBILEINY 01 Oct 14:54:27 15:02:54 57° 269° (W) 15:11:18 435.215
SO-50 01 Oct 14:59:53 15:04:43 73° 305° (NW) 15:09:29 436.795
Cosmos 2504 01 Oct 15:06:47 15:14:19 77° 81° (E) 15:22:25 435.465 / 435.565
ITAMSAT 1 01 Oct 15:16:23 15:21:33 76° 257° (WSW) 15:26:46 435.822/435.867
ITUPSAT 1 01 Oct 15:18:00 15:22:43 53° 100° (E) 15:27:25 437.325
SWISSCUBE 01 Oct 15:28:43 15:33:33 77° 104° (ESE) 15:38:21 437.505
BEESAT 01 Oct 15:41:14 15:46:04 89° 273° (W) 15:50:51 436.000
AO-7 01 Oct 15:43:14 15:51:34 85° 252° (WSW) 15:59:56 29.400- 29.500
AIST 1 01 Oct 15:43:46 15:47:46 37° 77° (ENE) 15:51:42
Gurwin Techsat 1B 01 Oct 15:49:15 15:51:09 12° 272° (W) 15:53:04 435.225
KKS-1 01 Oct 16:26:03 16:29:56 29° 97° (E) 16:33:47 437.445
O/OREOS (USA 219) 01 Oct 16:29:47 16:34:24 71° 67° (ENE) 16:38:57 437.305
MOZHAYETS 4 01 Oct 16:30:39 16:35:14 56° 100° (E) 16:39:47
SO-50 01 Oct 16:43:31 16:46:00 14° 324° (NW) 16:48:30 436.795
HORYU 2 01 Oct 16:44:14 16:48:19 39° 70° (ENE) 16:52:26 437.375
STARS 01 Oct 16:48:19 16:51:53 24° 95° (E) 16:55:26 437.465
Cosmos 2491 01 Oct 16:50:46 16:57:34 24° 296° (WNW) 17:04:27 435.465 / 435.565
BRITE-PL 01 Oct 16:52:54 16:57:56 34° 69° (ENE) 17:02:49 437.365/2234.400
ITUPSAT 1 01 Oct 16:56:52 17:00:09 19° 297° (WNW) 17:03:24 437.325
Cosmos 2504 01 Oct 17:01:47 17:06:54 20° 279° (W) 17:12:13 435.465 / 435.565
SWISSCUBE 01 Oct 17:08:29 17:10:41 13° 300° (WNW) 17:12:54 437.505
NOAA 15 01 Oct 17:16:51 17:21:16 27° 65° (ENE) 17:25:41 137.62
BEESAT 01 Oct 17:21:46 17:23:04 11° 302° (WNW) 17:24:23 436.000
AIST 1 01 Oct 17:22:11 17:25:02 18° 274° (W) 17:27:52
NOAA 18 01 Oct 17:24:13 17:28:21 23° 62° (ENE) 17:32:30 137.9125
GONETS M04 01 Oct 17:24:42 17:26:37 11° 52° (NE) 17:28:32
AO-7 01 Oct 17:40:29 17:45:26 17° 270° (W) 17:50:25 29.400- 29.500
CUTE-I 01 Oct 17:46:27 17:51:22 40° 68° (ENE) 17:56:19 437.470
Cubesat XI-IV 01 Oct 17:47:40 17:52:36 41° 69° (ENE) 17:57:34 437.490
GOMX 1 01 Oct 17:58:27 18:03:40 59° 74° (ENE) 18:08:36 467.674
RS-15 01 Oct 17:58:38 18:07:04 24° 99° (E) 18:15:45 29.354- 29.394
DOVE 4 01 Oct 17:59:38 18:03:38 26° 68° (ENE) 18:07:27 437.250
CUBESAT XI-V 01 Oct 18:01:49 18:06:30 67° 102° (ESE) 18:11:07 437.345
KKS-1 01 Oct 18:02:42 18:06:24 27° 293° (WNW) 18:10:05 437.445
Cosmos 2499 01 Oct 18:06:05 18:10:41 16° 63° (ENE) 18:15:25 435.465 / 435.565
HO-68 01 Oct 18:08:37 18:13:02 18° 53° (NE) 18:17:26 435.675
MOZHAYETS 4 01 Oct 18:09:03 18:11:56 16° 297° (WNW) 18:14:49
O/OREOS (USA 219) 01 Oct 18:11:38 18:13:08 11° 263° (W) 18:14:38 437.305
HORYU 2 01 Oct 18:21:51 18:25:01 19° 266° (W) 18:28:13 437.375
STARS 01 Oct 18:24:23 18:28:15 31° 291° (WNW) 18:32:05 437.465
BRITE-PL 01 Oct 18:31:08 18:36:18 35° 264° (W) 18:41:20 437.365/2234.400
LilacSat-2 01 Oct 18:32:06 18:35:50 71° 259° (WSW) 18:39:38 437.200
CUSAT 1 01 Oct 18:35:43 18:42:10 56° 92° (E) 18:49:46 437.405
CINEMA 3 01 Oct 18:41:39 18:44:28 17° 66° (ENE) 18:47:12 145.822/145.860
NOAA 15 01 Oct 18:55:52 19:00:49 40° 262° (W) 19:05:50 137.62
AO-85 01 Oct 19:03:08 19:05:50 14° 109° (ESE) 19:08:28 145.980
NOAA 18 01 Oct 19:03:19 19:08:38 53° 259° (W) 19:13:59 137.9125
DANDE 01 Oct 19:06:35 19:11:43 37° 87° (E) 19:18:12 436.750
STRAND 1 01 Oct 19:11:11 19:14:31 17° 91° (E) 19:17:50 437.568
SEEDS 01 Oct 19:14:06 19:17:01 18° 66° (ENE) 19:19:58 437.485
ISS 01 Oct 19:14:08 19:17:21 64° 142° (SE) 19:20:34 145.825
GONETS M04 01 Oct 19:17:10 19:25:49 56° 76° (ENE) 19:34:20
CUTE 1.7 + AOD 2 01 Oct 19:19:49 19:23:30 29° 69° (ENE) 19:27:13 437.475
CUBEBUG 2 01 Oct 19:21:36 19:23:02 12° 62° (ENE) 19:24:28 437.445
CANX-2 01 Oct 19:21:45 19:25:37 35° 71° (ENE) 19:29:32 2200.000
AAUSAT CUBESAT 2 01 Oct 19:25:09 19:27:07 13° 63° (ENE) 19:29:06 437.432
CUTE-I 01 Oct 19:27:06 19:31:31 26° 265° (W) 19:35:58 437.470
Cubesat XI-IV 01 Oct 19:28:24 19:32:47 26° 265° (W) 19:37:13 437.490
DOVE 4 01 Oct 19:36:43 19:41:12 34° 263° (W) 19:45:27 437.250
GOMX 1 01 Oct 19:38:31 19:42:01 18° 268° (W) 19:45:24 467.674
CUBESAT XI-V 01 Oct 19:40:52 19:43:17 14° 298° (WNW) 19:45:41 437.345
HO-68 01 Oct 19:52:33 19:59:43 84° 72° (ENE) 20:06:55 435.675
Cosmos 2499 01 Oct 19:57:09 20:04:52 84° 81° (E) 20:13:12 435.465 / 435.565
RS-15 01 Oct 20:06:07 20:17:47 90° 120° (ESE) 20:30:06 29.354- 29.394
COMPASS 1 01 Oct 20:11:23 20:15:27 52° 73° (ENE) 20:19:33 437.405
CINEMA 3 01 Oct 20:17:05 20:21:18 45° 261° (W) 20:25:23 145.822/145.860
CUSAT 1 01 Oct 20:18:35 20:24:37 32° 294° (WNW) 20:31:28 437.405
FUNcube-1 01 Oct 20:39:00 20:42:37 30° 70° (ENE) 20:46:16 145.935
AO-85 01 Oct 20:40:35 20:45:47 79° 303° (WNW) 20:50:40 145.980
PRISM 01 Oct 20:44:27 20:45:41 11° 90° (E) 20:46:55 437.425
SEEDS 01 Oct 20:48:27 20:52:25 40° 262° (W) 20:56:26 437.485
STRAND 1 01 Oct 20:49:00 20:54:04 59° 288° (WNW) 20:59:07 437.568
DANDE 01 Oct 20:49:05 20:54:27 38° 292° (WNW) 21:01:12 436.750
ISS 01 Oct 20:51:19 20:54:03 24° 340° (NNW) 20:56:49 145.825
CUBEBUG 2 01 Oct 20:55:00 20:59:08 64° 259° (WSW) 21:03:16 437.445
CUTE 1.7 + AOD 2 01 Oct 20:55:53 20:59:20 24° 266° (W) 21:02:49 437.475
AAUSAT CUBESAT 2 01 Oct 20:57:59 21:02:06 58° 260° (W) 21:06:15 437.432
CANX-2 01 Oct 20:58:27 21:01:34 20° 267° (W) 21:04:43 2200.000
UWE-3 01 Oct 21:03:42 21:07:50 80° 256° (WSW) 21:12:01 435.000/436.395/437.385
HUMSAT D 01 Oct 21:06:55 21:08:56 13° 63° (ENE) 21:10:59 437.325/437.525
Oscar 11 01 Oct 21:12:19 21:16:37 78° 75° (ENE) 21:20:57 145.826/435.025
GONETS M04 01 Oct 21:14:40 21:22:09 33° 277° (W) 21:29:34
ZACube-1 01 Oct 21:23:01 21:27:09 78° 259° (W) 21:31:19 437.345
DELFI C3 01 Oct 21:40:10 21:44:07 61° 75° (ENE) 21:48:07 145.870
HO-68 01 Oct 21:43:41 21:48:13 18° 270° (W) 21:52:47 435.675
COMPASS 1 01 Oct 21:49:15 21:51:19 13° 270° (W) 21:53:23 437.405
SO-50 01 Oct 21:51:35 21:54:43 18° 39° (NE) 21:57:47 436.795
Cosmos 2499 01 Oct 21:52:09 21:57:06 19° 280° (W) 22:02:15 435.465 / 435.565
FUNcube-1 01 Oct 22:15:42 22:18:54 22° 266° (W) 22:22:07 145.935
PRISM 01 Oct 22:17:18 22:21:23 60° 286° (WNW) 22:25:24 437.425
RS-15 01 Oct 22:21:27 22:32:04 36° 329° (NNW) 22:43:06 29.354- 29.394
AO-85 01 Oct 22:24:06 22:26:57 15° 322° (NW) 22:29:41 145.980
UNISAT 6 01 Oct 22:28:58 22:32:40 25° 95° (E) 22:36:23 437.425
ISS 01 Oct 22:29:21 22:31:23 15° 1° (N) 22:33:25 145.825
CUBEBUG 1 01 Oct 22:31:38 22:33:35 13° 62° (ENE) 22:35:32 437.445
VELOX 1 01 Oct 22:39:25 22:41:12 12° 61° (ENE) 22:42:59 145.980
HUMSAT D 01 Oct 22:40:05 22:44:05 54° 260° (W) 22:48:10 437.325/437.525
ESTCUBE 1 01 Oct 22:56:42 23:00:49 36° 70° (ENE) 23:04:59 437.505/2401.250
ANTELSAT 01 Oct 23:03:39 23:08:03 57° 101° (E) 23:12:32 437.575/2403.000
UKube-1 01 Oct 23:14:12 23:16:20 14° 62° (ENE) 23:18:31 .
M-CUBED/EXP-1 PRIME 01 Oct 23:18:24 23:21:34 23° 64° (ENE) 23:24:32 437.505
DELFI C3 01 Oct 23:18:42 23:19:21 10° 271° (W) 23:19:59 145.870
TIGRISAT 01 Oct 23:22:51 23:27:19 87° 103° (ESE) 23:31:52 435.000
50 SAT 01 Oct 23:23:39 23:26:45 27° 70° (ENE) 23:29:53 437.505
AISAT 01 Oct 23:29:45 23:33:56 41° 71° (ENE) 23:38:06 437.250
SO-50 01 Oct 23:31:08 23:35:42 73° 239° (WSW) 23:40:08 436.795
BEESAT 3 01 Oct 23:40:08 23:43:37 32° 116° (ESE) 23:47:10 437.485
QB50P2 01 Oct 23:42:53 23:46:06 21° 94° (E) 23:49:17 145.880/145.840
POLYITAN 1 01 Oct 23:45:03 23:48:15 21° 94° (E) 23:51:27 437.675
DX 1 01 Oct 23:49:24 23:53:29 40° 70° (ENE) 23:57:35 434.975-435.025
CUBEBUG 1 02 Oct 00:04:55 00:09:19 67° 259° (W) 00:13:43 437.445
UNISAT 6 02 Oct 00:05:26 00:09:22 32° 291° (WNW) 00:13:23 437.425
ISS 02 Oct 00:05:53 00:08:42 26° 21° (NNE) 00:11:31 145.825
AUBIESAT-1 02 Oct 00:10:29 00:14:25 77° 72° (ENE) 00:18:05 437.475
VELOX 1 02 Oct 00:12:38 00:17:04 73° 257° (WSW) 00:21:32 145.980
DUCHIFAT 1 02 Oct 00:15:45 00:19:42 38° 98° (E) 00:23:37 145.980
QB50P1 02 Oct 00:22:53 00:27:02 54° 101° (E) 00:31:10 145.935-145.965
SPROUT 02 Oct 00:24:07 00:28:23 83° 74° (ENE) 00:32:39 437.525
JAS-2 02 Oct 00:24:51 00:32:28 51° 97° (E) 00:39:34 435.910
ESTCUBE 1 02 Oct 00:34:08 00:37:42 23° 266° (W) 00:41:18 437.505/2401.250
POPSAT HIP 1 02 Oct 00:36:49 00:41:02 77° 102° (ESE) 00:45:16 437.405
RS-15 02 Oct 00:40:16 00:49:41 24° 4° (N) 00:59:13 29.354- 29.394
ANTELSAT 02 Oct 00:41:46 00:44:19 15° 296° (WNW) 00:46:54 437.575/2403.000
BEESAT 2 02 Oct 00:44:39 00:48:35 83° 125° (SE) 00:52:35 435.950
UKube-1 02 Oct 00:47:36 00:51:52 61° 258° (WSW) 00:56:11 .
NANOSAT C BR1 02 Oct 00:49:54 00:54:06 79° 285° (WNW) 00:58:19 145.865
M-CUBED/EXP-1 PRIME 02 Oct 00:52:35 00:55:59 26° 257° (WSW) 00:59:13 437.505
50 SAT 02 Oct 00:57:36 01:00:15 19° 266° (W) 01:02:55 437.505
Cosmos 2491 02 Oct 01:01:12 01:09:22 39° 71° (ENE) 01:17:26 435.465 / 435.565
SWISSCUBE 02 Oct 01:01:34 01:03:04 11° 59° (ENE) 01:04:34 437.505
TIGRISAT 02 Oct 01:02:47 01:03:20 10° 300° (WNW) 01:03:53 435.000
AISAT 02 Oct 01:07:25 01:10:34 19° 267° (W) 01:13:43 437.250
BEESAT 02 Oct 01:13:09 01:15:25 13° 60° (ENE) 01:17:42 436.000
BEESAT 3 02 Oct 01:18:04 01:21:19 24° 313° (NW) 01:24:35 437.485
QB50P2 02 Oct 01:18:09 01:21:58 34° 290° (WNW) 01:25:47 145.880/145.840
POLYITAN 1 02 Oct 01:20:18 01:24:07 34° 290° (WNW) 01:27:56 437.675
DX 1 02 Oct 01:26:44 01:29:49 19° 266° (W) 01:32:56 434.975-435.025
TISAT 1 02 Oct 01:27:48 01:31:58 84° 76° (ENE) 01:36:10 437.305
BUGSAT 1 02 Oct 01:34:25 01:38:25 65° 286° (WNW) 01:42:25 437.445
ISS 02 Oct 01:42:08 01:45:22 57° 218° (SW) 01:48:35 145.825
DUCHIFAT 1 02 Oct 01:52:09 01:55:06 19° 294° (WNW) 01:58:03 145.980
YUBILEINY 02 Oct 01:59:50 02:07:33 36° 85° (E) 02:15:13 435.215
QB50P1 02 Oct 02:00:06 02:02:21 14° 297° (WNW) 02:04:36 145.935-145.965
AIST 2 02 Oct 02:09:59 02:13:12 22° 112° (ESE) 02:16:26 435.215
JAS-2 02 Oct 02:10:11 02:17:09 37° 297° (WNW) 02:23:47 435.910
POPSAT HIP 1 02 Oct 02:15:25 02:16:11 10° 299° (WNW) 02:16:58 437.405
Gurwin Techsat 1B 02 Oct 02:21:21 02:26:06 32° 96° (E) 02:30:49 435.225
ITUPSAT 1 02 Oct 02:24:56 02:29:39 64° 73° (ENE) 02:34:23 437.325
BEESAT 2 02 Oct 02:25:01 02:26:57 13° 321° (NW) 02:28:55 435.950
Oscar 19 02 Oct 02:25:22 02:30:32 73° 103° (ESE) 02:35:38 437.125/150
SWISSCUBE 02 Oct 02:35:21 02:40:07 88° 249° (WSW) 02:44:55 437.505
BEESAT 02 Oct 02:47:50 02:52:35 74° 257° (WSW) 02:57:23 436.000
RS-15 02 Oct 02:55:17 03:06:51 42° 37° (NE) 03:18:13 29.354- 29.394
Cosmos 2491 02 Oct 02:58:00 03:06:20 48° 272° (W) 03:14:36 435.465 / 435.565
PCSat 02 Oct 03:22:46 03:27:52 45° 113° (ESE) 03:33:01 145.827
KKS-1 02 Oct 03:24:29 03:28:19 29° 68° (ENE) 03:32:09 437.445
ITAMSAT 1 02 Oct 03:28:56 03:33:46 37° 98° (E) 03:38:35 435.822/435.867
MOZHAYETS 4 02 Oct 03:32:40 03:37:07 55° 73° (ENE) 03:41:38
AO-85 02 Oct 03:33:21 03:35:34 14° 37° (NE) 03:37:41 145.980
AO-7 02 Oct 03:44:55 03:52:05 31° 96° (E) 03:59:12 29.400- 29.500
STARS 02 Oct 03:45:27 03:48:56 24° 66° (ENE) 03:52:25 437.465
Cosmos 2504 02 Oct 03:45:57 03:53:09 63° 93° (E) 04:00:13 435.465 / 435.565
AIST 2 02 Oct 03:47:40 03:51:28 36° 310° (NW) 03:55:19 435.215
YUBILEINY 02 Oct 03:55:34 04:04:01 51° 285° (WNW) 04:12:29 435.215
Gurwin Techsat 1B 02 Oct 04:01:17 04:06:00 33° 293° (WNW) 04:10:43 435.225
ITUPSAT 1 02 Oct 04:05:31 04:07:54 14° 270° (W) 04:10:20 437.325
Oscar 19 02 Oct 04:06:18 04:09:14 15° 300° (WNW) 04:12:08 437.125/150
AIST 1 02 Oct 04:13:55 04:17:19 22° 88° (E) 04:20:42
KKS-1 02 Oct 05:01:04 05:04:50 27° 264° (W) 05:08:36 437.445
CUBESAT XI-V 02 Oct 05:05:04 05:09:44 68° 75° (ENE) 05:14:26 437.345
PCSat 02 Oct 05:06:44 05:11:26 29° 311° (NW) 05:16:10 145.827
RS-15 02 Oct 05:08:07 05:20:26 74° 243° (WSW) 05:32:26 29.354- 29.394
ITAMSAT 1 02 Oct 05:08:39 05:13:05 29° 294° (WNW) 05:17:31 435.822/435.867
CUSAT 1 02 Oct 05:10:34 05:17:38 42° 70° (ENE) 05:23:26 437.405
MOZHAYETS 4 02 Oct 05:12:01 05:14:37 15° 269° (W) 05:17:15
AO-85 02 Oct 05:12:28 05:16:38 82° 239° (WSW) 05:20:32 145.980
STARS 02 Oct 05:21:11 05:25:08 32° 263° (W) 05:29:05 437.465
AO-7 02 Oct 05:37:08 05:45:15 60° 294° (WNW) 05:53:20 29.400- 29.500
Cosmos 2504 02 Oct 05:41:30 05:47:05 23° 293° (WNW) 05:52:37 435.465 / 435.565
DANDE 02 Oct 05:43:56 05:51:40 39° 69° (ENE) 05:58:39 436.750
AIST 1 02 Oct 05:50:50 05:54:43 31° 285° (WNW) 05:58:37
GOMX 1 02 Oct 06:01:57 06:04:02 13° 90° (E) 06:06:04 467.674
CUTE-I 02 Oct 06:04:13 06:07:15 15° 90° (E) 06:10:17 437.470
Cubesat XI-IV 02 Oct 06:05:36 06:08:42 15° 90° (E) 06:11:47 437.490
LilacSat-2 02 Oct 06:06:43 06:08:16 12° 91° (E) 06:09:48 437.200
HORYU 2 02 Oct 06:10:35 06:15:03 75° 103° (ESE) 06:19:31 437.375
STRAND 1 02 Oct 06:27:13 06:31:24 26° 65° (ENE) 06:35:37 437.568
GONETS M04 02 Oct 06:30:05 06:31:56 11° 71° (ENE) 06:33:46
BRITE-PL 02 Oct 06:35:45 06:40:27 83° 103° (ESE) 06:44:47 437.365/2234.400
O/OREOS (USA 219) 02 Oct 06:42:10 06:46:43 77° 111° (ESE) 06:51:19 437.305
CUBESAT XI-V 02 Oct 06:45:32 06:47:34 13° 271° (W) 06:49:37 437.345
CUSAT 1 02 Oct 06:52:55 06:59:26 35° 274° (W) 07:04:51 437.405
NOAA 15 02 Oct 07:10:05 07:15:25 74° 104° (ESE) 07:20:40 137.62
HO-68 02 Oct 07:22:07 07:25:49 15° 88° (E) 07:29:29 435.675
RS-15 02 Oct 07:23:36 07:30:38 18° 264° (W) 07:37:36 29.354- 29.394
NOAA 18 02 Oct 07:24:38 07:30:04 63° 102° (ESE) 07:35:30 137.9125
DANDE 02 Oct 07:26:40 07:34:39 50° 270° (W) 07:41:44 436.750
AO-7 02 Oct 07:32:20 07:36:20 15° 316° (NW) 07:40:19 29.400- 29.500
DOVE 4 02 Oct 07:34:41 07:38:48 58° 100° (E) 07:42:54 437.250
GOMX 1 02 Oct 07:38:20 07:42:31 50° 287° (WNW) 07:46:33 467.674
LilacSat-2 02 Oct 07:39:06 07:42:50 48° 286° (WNW) 07:46:33 437.200
CUTE-I 02 Oct 07:42:27 07:47:48 70° 287° (WNW) 07:53:08 437.470
Cubesat XI-IV 02 Oct 07:43:55 07:49:15 69° 287° (WNW) 07:54:34 437.490
HORYU 2 02 Oct 07:49:19 07:50:59 12° 300° (WNW) 07:52:41 437.375
BEESAT 3 02 Oct 07:56:42 08:00:01 25° 47° (NE) 08:03:19 437.485
STRAND 1 02 Oct 08:05:39 08:10:23 39° 262° (W) 08:15:10 437.568
PHONESAT 2.4 02 Oct 08:08:42 08:09:38 11° 149° (SSE) 08:10:32 2401.200-2431.200
CINEMA 3 02 Oct 08:10:47 08:14:42 36° 98° (E) 08:18:42 145.822/145.860
BRITE-PL 02 Oct 08:17:00 08:18:06 11° 302° (WNW) 08:19:13 437.365/2234.400
GONETS M04 02 Oct 08:18:08 08:26:48 63° 92° (E) 08:35:31
O/OREOS (USA 219) 02 Oct 08:24:27 08:26:43 13° 310° (NW) 08:29:00 437.305
SEEDS 02 Oct 08:31:48 08:35:36 31° 96° (E) 08:39:23 437.485
Cosmos 2499 02 Oct 08:34:44 08:41:44 67° 94° (E) 08:48:45 435.465 / 435.565
CUTE 1.7 + AOD 2 02 Oct 08:39:17 08:43:32 55° 100° (E) 08:47:44 437.475
AAUSAT CUBESAT 2 02 Oct 08:40:24 08:43:35 21° 94° (E) 08:46:43 437.432
CANX-2 02 Oct 08:41:32 08:45:50 68° 101° (E) 08:50:07 2200.000
CUBEBUG 2 02 Oct 08:45:18 08:48:53 24° 95° (E) 08:52:31 437.445
NOAA 15 02 Oct 08:51:26 08:54:33 16° 301° (WNW) 08:57:38 137.62
UWE-3 02 Oct 08:53:11 08:56:25 20° 93° (E) 08:59:41 435.000/436.395/437.385
Oscar 11 02 Oct 09:00:36 09:02:53 14° 91° (E) 09:05:11 145.826/435.025
BEESAT 2 02 Oct 09:02:10 09:06:07 54° 54° (NE) 09:10:03 435.950
NOAA 18 02 Oct 09:06:27 09:10:14 19° 300° (WNW) 09:14:00 137.9125
PRISM 02 Oct 09:06:28 09:10:39 82° 255° (WSW) 09:14:52 437.425
HO-68 02 Oct 09:07:17 09:14:29 85° 105° (ESE) 09:21:40 435.675
ZACube-1 02 Oct 09:11:16 09:14:30 20° 93° (E) 09:17:45 437.345
DOVE 4 02 Oct 09:14:18 09:16:02 12° 297° (WNW) 09:17:45 437.250
CUTE-I 02 Oct 09:26:24 09:26:52 10° 305° (NW) 09:27:20 437.470
UNISAT 6 02 Oct 09:28:43 09:32:00 22° 67° (ENE) 09:35:19 437.425
COMPASS 1 02 Oct 09:28:58 09:33:13 86° 284° (WNW) 09:37:25 437.405
BEESAT 3 02 Oct 09:34:07 09:37:43 33° 244° (WSW) 09:41:17 437.485
PHONESAT 2.4 02 Oct 09:42:27 09:45:12 39° 164° (SSE) 09:47:58 2401.200-2431.200
CINEMA 3 02 Oct 09:48:35 09:51:38 20° 293° (WNW) 09:54:44 145.822/145.860
FUNcube-1 02 Oct 10:01:35 10:05:58 64° 101° (ESE) 10:10:23 145.935
ANTELSAT 02 Oct 10:02:54 10:07:01 50° 73° (ENE) 10:11:10 437.575/2403.000
SEEDS 02 Oct 10:07:46 10:11:09 23° 292° (WNW) 10:14:30 437.485
AAUSAT CUBESAT 2 02 Oct 10:15:20 10:19:08 33° 289° (WNW) 10:22:52 437.432
CUTE 1.7 + AOD 2 02 Oct 10:16:34 10:18:55 14° 296° (WNW) 10:21:14 437.475
GONETS M04 02 Oct 10:16:44 10:24:13 30° 293° (WNW) 10:31:45
CANX-2 02 Oct 10:19:27 10:21:06 12° 298° (WNW) 10:22:47 2200.000
CUBEBUG 2 02 Oct 10:21:40 10:25:30 31° 290° (WNW) 10:29:25 437.445
TIGRISAT 02 Oct 10:21:52 10:26:05 79° 77° (ENE) 10:30:21 435.000
HUMSAT D 02 Oct 10:23:17 10:26:41 23° 94° (E) 10:30:06 437.325/437.525
UWE-3 02 Oct 10:28:55 10:32:58 38° 289° (WNW) 10:37:07 435.000/436.395/437.385
Cosmos 2499 02 Oct 10:30:18 10:35:30 22° 294° (WNW) 10:40:45 435.465 / 435.565
AIST 2 02 Oct 10:30:21 10:33:34 21° 44° (NE) 10:36:46 435.215
Oscar 11 02 Oct 10:35:05 10:39:21 53° 287° (WNW) 10:43:35 145.826/435.025
QB50P2 02 Oct 10:36:28 10:39:13 17° 65° (ENE) 10:41:59 145.880/145.840
JAS-2 02 Oct 10:37:45 10:43:12 25° 58° (ENE) 10:49:04 435.910
POLYITAN 1 02 Oct 10:38:37 10:41:22 17° 65° (ENE) 10:44:07 437.675
BEESAT 2 02 Oct 10:41:23 10:43:28 14° 251° (WSW) 10:45:34 435.950
ZACube-1 02 Oct 10:46:49 10:50:53 39° 289° (WNW) 10:55:02 437.345
DELFI C3 02 Oct 10:51:49 10:55:50 83° 283° (WNW) 10:59:49 145.870
HO-68 02 Oct 10:56:25 11:01:21 20° 305° (NW) 11:06:16 435.675
UNISAT 6 02 Oct 11:04:44 11:08:33 32° 263° (W) 11:12:24 437.425
DUCHIFAT 1 02 Oct 11:08:03 11:11:41 30° 69° (ENE) 11:15:21 145.980
QB50P1 02 Oct 11:15:33 11:19:30 41° 72° (ENE) 11:23:28 145.935-145.965
PHONESAT 2.4 02 Oct 11:18:13 11:21:07 64° 180° (S) 11:24:01 2401.200-2431.200
POPSAT HIP 1 02 Oct 11:29:23 11:33:30 59° 74° (ENE) 11:37:38 437.405
FUNcube-1 02 Oct 11:39:35 11:41:42 13° 297° (WNW) 11:43:49 145.935
ANTELSAT 02 Oct 11:41:51 11:44:03 14° 269° (W) 11:46:15 437.575/2403.000
NANOSAT C BR1 02 Oct 11:42:00 11:46:11 79° 76° (ENE) 11:50:22 145.865
CUBEBUG 1 02 Oct 11:53:46 11:57:04 21° 94° (E) 12:00:19 437.445
HUMSAT D 02 Oct 11:58:31 12:02:19 32° 290° (WNW) 12:06:08 437.325/437.525
VELOX 1 02 Oct 12:03:03 12:06:18 20° 94° (E) 12:09:32 145.980
Oscar 19 02 Oct 12:06:09 12:09:01 15° 60° (ENE) 12:11:54 437.125/150
AIST 2 02 Oct 12:08:14 12:12:17 47° 242° (WSW) 12:16:18 435.215
YUBILEINY 02 Oct 12:09:44 12:15:14 18° 60° (ENE) 12:20:41 435.215
PCSat 02 Oct 12:10:01 12:15:09 41° 53° (NE) 12:20:14 145.827
QB50P2 02 Oct 12:10:42 12:14:41 42° 261° (W) 12:18:42 145.880/145.840
SPROUT 02 Oct 12:11:09 12:13:16 13° 91° (E) 12:15:24 437.525
POLYITAN 1 02 Oct 12:12:52 12:16:50 42° 261° (W) 12:20:51 437.675
